{"data":{"norad_id":63166,"epoch":"2026-09-22T21:53:43.269504Z","epoch_age_seconds":102302,"freshness":"FRESH","line1":"1 63166U 25046H   26265.91230636  .00000085  00000+0  11201-3 0  9990","line2":"2 63166  88.9641 290.2986 0014684  38.8525 321.3679 13.51030268 85902","mean_motion":13.51030268,"eccentricity":0.0014684,"inclination_deg":88.9641,"raan_deg":290.2986,"arg_perigee_deg":38.8525,"mean_anomaly_deg":321.3679,"bstar":0.00011201,"rev_number":8590,"period_min":106.58532485225,"perigee_km":1057.5357641617,"apogee_km":1079.4049606637,"semimajor_km":7446.6073624127,"source":"CELESTRAK","updated_at":"2026-09-23T09:00:21.848215Z"}}